Regional Weather Roundup
Issued by NWS

Home | Current Version | Previous Version | Text Only | Print | Product List | Glossary Off
Versions: 1 2 3 4 5 6 7 8 9 10 11 12 13 14 15 16 17 18 19 20 21 22 23 24 25 26 27 28 29 30 31 32 33 34 35 36 37 38 39 40 41 42 43 44 45 46 47 48 49 50

000
ASUS45 KPSR 031410
RWRAZ

ARIZONA HOURLY REGIONAL WEATHER ROUNDUP
NATIONAL WEATHER SERVICE PHOENIX AZ
700 AM MST THU SEP 03 2015

NOTE: FAIR INDICATES FEW OR NO CLOUDS BELOW 12,000 FEET WITH NO
SIGNIFICANT WEATHER AND/OR OBSTRUCTIONS TO VISIBILITY.

AZZ001>003-036-031500-
NORTHWEST ARIZONA

CITY           SKY/WX    TMP DP  RH WIND       PRES   REMARKS
BULLHEAD CITY  CLEAR     81  45  28 CALM      29.81R
KINGMAN        PTCLDY    68  40  35 SE9       29.99R
$$

AZZ004>008-015-016-018-031500-
NORTH CENTRAL ARIZONA

CITY           SKY/WX    TMP DP  RH WIND       PRES   REMARKS
GRAND CANYON   PTSUNNY   52  47  83 NE5       30.22R
WILLIAMS       PTSUNNY   63  43  48 SE10      30.27R
PRESCOTT       MOSUNNY   61  43  51 S7        30.12R
FLAGSTAFF      MOSUNNY   52  44  74 CALM      30.26R
PAYSON         MOSUNNY   64  50  59 CALM      30.18R
PAGE           PTSUNNY   70  50  49 S5        30.05R
$$

AZZ009>014-017-031500-
NORTHEAST ARIZONA

CITY           SKY/WX    TMP DP  RH WIND       PRES   REMARKS
WINSLOW        MOSUNNY   59  54  83 SE8       30.15R
SAINT JOHNS    SUNNY     55  53  93 CALM      30.20R
WINDOW ROCK    MOSUNNY   56  50  80 CALM      30.27R
SHOW LOW       SUNNY     55  48  76 CALM      30.25R
$$

AZZ023-031500-
GREATER PHOENIX AREA

CITY           SKY/WX    TMP DP  RH WIND       PRES   REMARKS
PHOENIX        PTSUNNY   84  59  42 E5        29.86R
BUCKEYE        SUNNY     77  45  31 N3        29.87R
GLENDALE       MOSUNNY   84  48  28 CALM      29.88R
LUKE AFB       MOSUNNY   80  56  44 N5        29.86R
DEER VALLEY    SUNNY     80  51  36 E3        29.89R
SCOTTSDALE     MOSUNNY   82  57  42 CALM      29.91R
MESA-FALCON    PTSUNNY   81  54  39 N6        29.89R
MESA-GATEWAY   MOSUNNY   77  63  61 SE8       29.91R
CHANDLER       MOSUNNY   79  64  61 CALM      29.89R
$$

AZZ027-028-031500-
SOUTHWEST MARICOPA COUNTY AND PINAL COUNTY

CITY           SKY/WX    TMP DP  RH WIND       PRES   REMARKS
CASA GRANDE    SUNNY     81  57  44 CALM      29.89S
GILA BEND      PTSUNNY   80  41  25 SE5       29.84R
$$

AZZ503-504-507>509-031500-
SOUTHEAST ARIZONA

CITY           SKY/WX    TMP DP  RH WIND       PRES   REMARKS
TUCSON         MOSUNNY   76  61  59 SE12      30.01R
DAVIS-MONTHAN  MOSUNNY   75  63  66 SE3       30.00R
RYAN FIELD     SUNNY     75  64  69 E8        29.99R
NOGALES        LGT RAIN  67  62  84 E3        30.10R
SIERRA VISTA   CLOUDY    66  59  79 W7        30.15R
DOUGLAS        CLOUDY    67  62  84 S3        30.11R
SAFFORD        PTSUNNY   68  61  78 NW3       30.04R
$$

AZZ020-021-025-026-031-031500-
SOUTHWEST ARIZONA

CITY           SKY/WX    TMP DP  RH WIND       PRES   REMARKS
YUMA           PTCLDY    80  55  42 NE7       29.79R
$$

CAZ031-033-041-043-047-048-061-031500-
SOUTHERN CALIFORNIA

CITY           SKY/WX    TMP DP  RH WIND       PRES   REMARKS
DOWNTOWN L.A.  CLOUDY    69  58  67 VRB5      29.90S
L.A. AIRPORT   CLOUDY    68  60  75 VRB3      29.91R HAZE
SAN DIEGO      MOCLDY    70  59  68 NW3       29.93S
BURBANK        CLOUDY    68  58  70 SE7       29.91S
ONTARIO        CLOUDY    64  58  80 W5        29.92S
RIVERSIDE      CLOUDY    64  58  80 CALM      29.93R
PALM SPRINGS   PTCLDY    78  50  37 CALM      29.80R
EL CENTRO NAS  PTCLDY    76  49  38 CALM      29.79R
IMPERIAL       CLEAR     74  53  48 W5        29.76S
BLYTHE         CLEAR     77  51  40 NE6       29.80R
NEEDLES        CLEAR     85  47  26 W7        29.82R
$$

NVZ020-UTZ003-031500-
SOUTHERN NEVADA-UTAH

CITY           SKY/WX    TMP DP  RH WIND       PRES   REMARKS
LAS VEGAS      MOCLDY    81  32  17 S7        29.82R
SALT LAKE CITY PTSUNNY   74  42  31 S12G22    29.92R
$$

NMZ009-TXZ055-031500-
NEW MEXICO-WEST TEXAS

CITY           SKY/WX    TMP DP  RH WIND       PRES   REMARKS
ALBUQUERQUE    PTSUNNY   65  48  54 SE7       30.19R
EL PASO        CLOUDY    78  52  40 NE3       30.07R
$$


........................KEY........................
SKY/WX - SKY CONDITION/WEATHER
TMP    - TEMPERATURE IN FAHRENHEIT
DP     - DEW POINT IN FAHRENHEIT
RH     - RELATIVE HUMIDITY IN PERCENT
WIND   - DIRECTION AND SPEED IN MILES PER HOUR (MPH)
VRB    - VARIABLE WIND DIRECTION
PRES   - MEAN SEA LEVEL PRESSURE IN INCHES OF MERCURY
         F - FALLING PRESSURE   R - RISING PRESSURE
         S - STEADY PRESSURE
VSB    - VISIBILITY IN MILES
HX     - HEAT INDEX IN FAHRENHEIT
WCI    - WIND CHILL INDEX IN FAHRENHEIT
TC     - TEMPERATURE IN CELSIUS WHICH IS ALSO KNOWN AS
         TEMPERATURE IN CENTIGRADE
AFB    - AIR FORCE BASE
         LUKE AFB IS LUKE AIR FORCE BASE
         DAVIS-MONTHAN IS DAVIS-MONTHAN AIR FORCE BASE
NAS    - NAVAL AIR STATION
         EL CENTRO NAS IS EL CENTRO NAVAL AIR STATION
N/A    - NOT AVAILABLE



USA.gov is the U.S. government's official web portal to all federal, state and local government web resources and services.